Tracking 23611 objects as of 18-Sep-2021
HD Live streaming from Space Station
objects crossing your sky now
Track INSPIRATION-4

STARLINK-1541

Track STARLINK-1541 now!
10-day predictions
STARLINK-1541 is classified as:


NORAD ID: 46052
Int'l Code: 2020-055AB
Perigee: 553.7 km
Apogee: 555.0 km
Inclination: 53.1 °
Period: 95.6 minutes
Semi major axis: 6925 km
RCS: Unknown
Launch date: August 7, 2020
Source: United States (US)
Launch site: AIR FORCE EASTERN TEST RANGE (AFETR)
aabbcc
Your satellite tracking list
Your tracking list is empty




NASA's NSSDC Master Catalog

Two Line Element Set (TLE):
1 46052U 20055AB  21260.69396707  .00000756  00000-0  69634-4 0  9997
2 46052  53.0528 251.9211 0000951  72.6429 287.4664 15.06398253 62724
Source of the keplerian elements: AFSPC